Wind_Speed
14 12 13 14 13 13 14 13 15 17 17 16 17 19 20 19 19 19 19 19 18 17 17 18 20 20 20 20 20 20 19 19 20 20 20 21 22 23 24 25 26 27 28 28 27 27 26 25 24 24 24 24 24 24 25 25 24 23 23 23 24 25 26
11 13 14 13 12 12 14 14 14 16 17 17 17 19 20 20 20 20 20 20 18 17 16 17 19 19 19 18 18 18 18 18 19 20 20 21 22 22 23 24 25 27 29 29 28 28 27 27 27 26 25 24 24 25 26 26 26 25 25 25 25 26 27
13 14 14 14 13 14 16 16 15 16 17 19 20 21 21 21 21 20 20 20 18 16 15 16 18 18 18 17 17 18 19 19 19 20 21 22 23 23 23 24 25 26 28 29 28 27 28 28 28 27 26 24 24 25 27 28 27 27 27 27 26 27 28
14 14 15 14 14 16 17 17 16 16 17 18 20 21 22 22 21 20 19 19 17 16 16 16 17 17 16 17 17 19 20 22 22 21 22 23 23 24 25 25 25 25 27 28 27 26 26 27 28 28 26 24 24 25 27 28 29 29 28 28 28 28 28
14 15 15 14 16 18 17 14 13 13 16 18 19 20 21 22 21 19 17 17 16 16 16 16 16 16 16 17 18 19 20 22 24 24 24 24 24 26 27 28 27 26 27 28 27 25 25 26 27 27 27 26 25 25 27 29 30 29 29 29 29 29 29
15 16 15 15 17 18 16 13 11 8 10 13 16 17 18 17 16 15 15 15 16 16 16 16 16 16 18 19 20 20 21 22 23 24 25 26 28 28 28 29 30 29 28 27 26 25 25 26 27 27 27 27 25 25 27 29 30 30 30 30 30 29 30
17 17 16 16 17 17 15 13 10 7 5 6 9 12 13 13 13 14 15 15 15 15 15 15 16 18 19 20 21 22 23 25 25 25 26 28 31 32 32 31 31 31 28 26 26 26 27 29 30 28 28 28 27 26 27 28 29 30 30 30 30 29 30
20 19 19 18 17 16 15 13 10 7 5 3 4 6 9 10 12 13 13 14 14 15 16 16 18 19 21 22 24 25 27 29 29 28 29 29 31 33 34 34 33 32 29 27 27 28 29 31 31 30 28 28 28 27 27 28 29 30 30 30 29 29 31
22 20 20 19 17 15 13 13 11 7 4 3 2 2 5 7 9 11 12 14 15 16 17 18 20 22 23 25 27 29 31 32 33 32 32 31 32 34 35 35 35 33 31 30 30 30 31 32 33 32 29 28 28 28 28 28 29 30 30 30 30 30 32
22 20 21 20 18 15 12 10 9 7 4 4 3 3 4 5 7 10 12 13 15 16 18 20 21 23 25 27 29 30 32 33 34 34 33 32 33 35 36 36 36 34 32 33 33 32 32 33 35 34 30 28 29 29 29 29 29 30 30 30 30 31 31
23 23 23 21 18 15 12 8 6 5 3 4 6 6 7 7 7 8 9 11 13 15 17 19 21 23 26 28 30 31 32 33 35 35 35 34 34 36 38 38 38 36 33 34 35 34 33 33 36 36 32 30 31 31 30 30 30 31 30 30 31 31 31
25 25 25 22 19 15 12 9 7 6 5 6 8 9 8 6 6 7 8 11 14 16 18 20 23 26 28 30 32 33 33 35 36 37 37 37 37 38 38 38 38 36 33 34 36 36 35 34 35 36 34 33 33 32 32 32 31 31 31 32 32 31 31
26 25 24 22 19 15 12 10 9 8 7 8 9 9 9 8 8 9 12 15 18 20 21 24 28 30 31 33 35 34 35 35 37 40 41 40 41 40 39 38 38 36 34 34 36 37 36 35 35 35 34 33 34 35 34 33 32 33 33 33 33 31 31
22 22 23 21 17 13 12 11 10 10 9 9 9 9 9 9 11 13 16 19 21 23 25 27 29 31 32 35 35 34 34 36 39 42 42 41 42 42 43 43 42 40 38 37 36 37 37 36 35 34 33 32 34 35 34 33 33 34 34 34 34 32 31
19 20 20 19 14 12 13 13 13 13 13 13 11 11 11 12 14 16 18 20 23 25 27 29 29 30 31 33 33 34 35 38 42 42 41 43 45 43 45 45 43 43 44 42 39 37 38 37 34 33 32 32 33 34 34 35 34 34 35 35 35 33 33
19 19 18 16 13 13 15 16 16 17 18 19 18 17 17 17 19 20 21 23 24 26 27 28 29 29 30 31 32 33 35 40 43 41 42 47 45 41 43 44 42 42 45 47 44 38 35 34 33 31 31 31 31 33 34 35 35 34 35 36 36 35 35
21 18 15 15 16 17 19 20 20 20 21 23 24 24 23 24 25 26 26 27 28 29 30 30 31 31 31 31 33 35 37 40 41 39 41 45 44 41 42 42 41 43 47 50 50 44 37 33 32 32 33 32 32 34 35 35 36 35 35 36 36 35 36
20 17 15 16 19 20 22 23 23 23 24 25 26 27 27 29 30 30 30 31 32 32 32 33 33 34 34 34 36 38 39 42 43 42 43 45 45 45 43 40 40 44 47 50 51 51 45 39 36 37 38 37 36 36 35 35 36 36 35 35 35 34 36
19 18 18 19 21 22 24 26 26 26 26 27 28 29 31 32 32 32 33 34 34 34 35 35 35 36 37 38 39 41 42 44 46 47 49 49 48 48 47 45 46 47 47 48 49 52 49 43 41 42 42 40 39 36 35 37 37 36 35 35 35 35 36
22 21 22 22 23 24 26 28 29 29 29 29 30 31 32 33 34 34 35 36 36 36 37 37 37 37 39 41 43 44 46 47 48 51 53 51 50 51 50 49 51 54 54 53 52 53 53 47 42 41 39 37 37 36 37 38 37 36 36 36 36 35 35
26 26 25 24 25 27 29 31 33 32 31 31 31 32 34 35 36 37 37 38 38 38 39 39 39 40 41 43 45 47 48 50 51 53 53 51 50 50 49 48 51 53 54 57 57 55 51 44 38 37 36 35 35 35 38 38 37 37 36 36 36 36 35
28 28 27 26 28 31 33 34 35 34 33 33 33 35 36 38 39 40 40 41 41 40 40 41 41 43 44 45 47 50 51 51 52 52 54 54 50 46 45 47 49 48 50 57 57 49 41 35 32 35 38 37 35 35 37 37 36 36 36 37 38 37 37
31 31 31 32 33 35 36 36 36 35 34 35 36 38 40 41 42 43 44 44 43 42 43 43 43 45 48 50 51 52 52 52 51 51 53 55 52 48 46 44 45 49 54 52 41 31 27 27 30 37 40 37 34 34 35 34 34 34 35 37 37 37 39
36 37 37 36 36 37 38 38 38 37 37 38 40 41 42 43 43 44 46 46 45 44 45 45 46 49 52 52 52 51 51 52 52 51 51 52 52 50 44 40 44 51 50 38 27 24 26 29 32 36 37 34 34 35 33 32 33 33 34 36 37 39 42
39 39 38 38 39 40 40 41 41 41 41 42 43 44 44 44 44 44 46 46 46 47 47 47 50 54 54 52 50 50 51 53 53 51 49 49 48 46 42 39 41 42 35 28 30 33 35 33 31 31 32 35 37 37 33 32 32 31 32 35 38 41 42
39 38 39 40 41 42 42 43 43 43 42 43 44 46 46 46 44 44 44 46 47 49 49 50 53 54 51 50 50 51 53 55 52 48 46 43 41 42 42 38 36 36 36 37 39 39 37 32 28 29 33 34 35 35 33 32 30 29 32 36 39 40 40
36 37 39 40 41 42 43 43 43 43 43 44 45 46 47 47 47 46 46 46 48 50 51 53 54 52 50 49 51 52 53 53 48 43 41 37 32 33 38 38 39 42 41 39 39 38 36 31 29 32 36 34 32 33 32 29 28 31 36 38 38 39 40
40 40 40 40 41 42 43 44 45 45 45 46 46 46 47 49 50 49 48 48 51 54 54 54 54 52 51 50 50 50 51 50 45 38 36 34 31 33 37 40 41 41 39 38 39 39 37 35 37 39 40 38 35 33 30 29 32 37 40 39 39 40 40
44 44 42 42 43 45 45 45 45 45 45 47 49 49 50 50 51 51 51 52 55 57 56 55 55 53 51 49 48 48 49 49 45 39 36 35 34 34 35 36 37 38 39 40 41 39 38 40 43 43 42 37 33 31 31 33 36 41 44 42 41 41 40
43 43 42 42 44 45 46 45 44 44 46 49 51 52 53 53 54 54 54 55 57 58 57 56 52 49 47 46 46 46 47 47 45 41 37 36 36 34 34 34 35 38 41 40 38 37 39 41 43 42 38 33 30 32 36 38 40 44 46 44 42 41 41
40 40 40 41 44 45 44 43 43 45 48 51 53 55 57 58 58 57 57 58 58 57 54 50 45 43 43 44 44 44 44 44 44 41 38 37 37 36 34 35 36 40 44 43 39 40 43 44 42 37 31 30 32 36 39 41 43 47 48 46 45 44 44
39 38 38 40 42 42 42 42 43 46 49 52 55 57 59 60 59 59 59 58 55 52 49 45 43 43 43 43 43 42 41 41 41 41 39 38 36 35 35 37 38 40 41 42 43 44 43 39 35 31 31 34 37 39 41 44 47 50 51 50 47 46 46
38 38 38 39 41 42 43 43 44 46 49 52 55 57 58 58 59 58 56 52 50 49 47 45 44 43 42 41 40 40 39 39 39 39 40 38 36 36 38 39 39 37 34 36 40 40 34 30 32 37 41 43 44 45 46 48 49 51 51 49 47 47 48
45 44 42 42 43 45 46 46 48 50 52 54 56 58 58 60 59 55 50 46 45 44 43 42 41 39 38 38 38 38 39 39 39 38 39 39 39 41 42 41 40 36 30 28 31 32 31 35 43 48 48 48 47 46 46 47 47 48 47 47 47 48 48
49 48 45 43 45 46 47 47 48 50 52 55 58 60 60 58 53 47 41 39 38 37 37 38 38 37 37 37 37 38 38 39 39 40 40 41 41 42 43 42 40 37 32 30 31 35 39 45 49 50 50 48 46 44 44 44 45 46 47 49 49 47 45
46 47 46 45 45 45 45 45 45 46 48 50 51 51 48 43 37 34 33 34 35 36 38 39 38 38 38 37 37 38 38 39 40 41 42 42 43 43 43 43 42 40 39 37 38 40 44 47 49 49 48 46 43 42 43 45 47 49 49 48 46 43 43
45 45 45 44 42 41 41 41 41 42 43 41 38 34 32 30 30 31 33 35 37 38 39 39 40 40 39 38 37 38 39 40 42 43 44 44 45 45 44 44 43 43 42 42 42 44 46 47 48 48 47 46 45 45 46 48 48 47 45 43 42 43 46
42 40 39 39 39 39 39 38 38 38 38 37 33 31 31 31 32 33 35 37 38 38 38 40 41 42 41 40 38 38 40 43 44 45 46 46 46 47 46 45 44 43 42 43 45 46 47 47 47 47 46 46 46 46 47 46 44 42 41 43 44 46 47
Wind_Direction
257 264 272 286 294 298 297 284 262 251 249 250 251 252 255 259 265 270 273 274 274 275 278 281 283 286 290 292 293 294 298 300 299 298 299 301 303 305 305 303 299 296 294 293 293 294 297 301 305 307 309 309 310 309 307 307 307 308 310 310 310 311 312
262 265 274 286 290 292 295 289 272 257 249 247 247 251 256 262 267 271 274 273 273 276 279 281 283 286 288 289 290 292 295 298 298 295 295 298 301 304 306 304 300 296 294 294 295 298 302 304 306 306 306 308 309 307 305 305 305 307 309 308 308 310 310
262 266 278 286 290 292 291 288 279 264 254 249 248 252 256 261 265 268 269 271 275 278 278 277 280 285 287 289 292 295 297 299 298 294 293 295 296 299 304 305 302 299 295 294 295 299 303 304 305 305 305 304 304 303 302 302 303 305 306 306 307 308 307
258 265 276 282 291 294 292 291 284 269 259 256 255 256 257 259 263 264 266 271 275 276 274 275 279 284 289 292 297 300 300 300 302 299 297 297 296 297 301 303 303 300 297 294 294 296 300 303 304 304 302 300 299 299 298 296 299 302 304 304 304 305 305
252 262 271 279 289 292 291 294 288 267 255 256 257 259 260 260 262 264 266 269 271 270 271 276 283 290 294 295 296 299 298 298 301 303 302 301 300 299 301 303 302 302 302 299 295 295 297 300 304 304 301 298 297 297 295 293 295 299 300 301 301 302 304
251 262 268 274 286 289 287 290 292 274 256 254 253 255 257 257 257 258 259 261 265 269 273 281 287 291 293 293 293 295 296 296 299 303 302 300 299 301 303 304 303 304 304 301 297 295 295 297 301 302 300 296 294 295 294 293 294 295 296 298 300 301 302
249 259 263 271 284 286 280 281 288 289 276 262 255 254 254 252 249 249 254 261 267 272 278 283 285 286 289 292 294 296 297 297 298 300 300 297 297 300 304 306 304 303 303 300 295 292 291 291 294 297 297 294 291 292 293 293 292 293 294 297 299 300 301
245 253 259 270 282 279 273 274 280 287 275 246 248 256 254 253 252 254 259 263 267 274 279 283 286 290 293 296 299 301 302 302 301 301 300 297 296 298 300 302 303 301 299 295 290 289 289 287 288 290 293 293 291 290 291 292 291 291 294 298 299 299 300
243 251 260 272 278 273 270 272 275 282 265 212 198 230 244 249 251 253 257 261 268 276 283 289 294 298 301 302 304 304 305 306 305 303 302 298 295 294 293 294 298 299 295 290 287 287 287 287 286 287 291 295 295 289 287 289 291 292 296 298 297 299 302
245 254 264 273 274 266 267 277 282 283 254 216 220 259 284 283 266 261 265 270 279 285 291 298 302 304 305 305 306 306 306 306 305 304 302 297 294 294 291 290 292 293 291 289 288 287 287 287 286 287 291 296 296 289 284 286 290 293 296 297 297 299 303
253 260 266 271 268 260 260 272 287 288 258 245 267 293 309 304 282 274 279 284 292 297 300 304 308 309 309 308 308 308 307 306 305 304 301 297 293 292 290 289 290 290 288 288 288 287 287 287 286 286 288 295 297 291 283 283 288 294 297 298 298 300 305
257 261 265 267 263 258 256 256 265 279 285 285 286 292 296 288 273 278 288 295 301 302 304 308 310 311 312 312 310 307 306 306 304 300 296 292 288 287 285 285 289 291 288 286 285 285 286 286 286 286 287 292 297 293 285 281 286 294 299 300 300 302 306
257 257 260 261 259 260 262 258 257 263 277 291 289 285 278 268 271 281 288 296 301 302 306 309 309 309 312 314 313 310 306 305 302 295 290 286 284 281 278 278 284 287 285 283 283 282 283 285 285 285 287 291 295 294 288 283 285 293 300 302 301 303 305
250 250 251 254 257 268 277 277 274 268 271 279 276 273 273 275 282 286 290 297 301 304 307 307 308 310 312 313 313 310 305 302 297 291 289 291 289 283 279 280 283 283 279 277 280 279 278 281 282 282 284 288 291 293 291 287 287 293 299 302 301 301 303
240 243 248 254 263 279 285 288 290 287 287 287 276 266 269 280 287 289 292 298 300 302 303 304 308 311 310 309 308 305 301 296 291 288 291 297 297 289 284 282 283 283 276 273 278 280 276 276 278 277 279 285 290 292 291 290 290 293 297 301 302 299 299
239 242 251 266 279 286 285 288 292 293 296 298 294 287 285 290 295 297 300 303 304 305 306 308 311 313 311 308 305 302 299 296 293 292 293 297 299 292 283 279 282 284 278 274 278 281 277 275 274 272 276 283 288 289 289 290 291 293 297 301 302 299 295
246 251 262 277 284 283 283 285 288 292 296 299 299 300 302 303 305 306 307 308 309 310 312 313 314 316 316 313 308 305 304 305 306 303 296 296 297 291 283 281 283 283 281 279 277 274 274 276 274 274 276 280 284 285 286 288 290 291 296 301 302 299 296
257 261 268 275 276 276 279 281 284 288 292 295 297 300 302 304 305 306 307 309 309 310 313 315 315 316 317 316 312 309 309 310 311 309 302 297 294 289 286 287 288 286 285 285 278 272 270 270 273 279 281 278 278 280 283 287 287 288 293 299 300 299 298
267 266 266 268 268 269 273 276 279 283 286 290 293 296 298 300 302 303 305 307 307 307 311 314 315 314 316 317 314 310 309 309 308 307 304 297 290 288 288 289 290 291 289 286 280 274 269 268 273 281 282 276 272 275 283 287 286 284 289 294 296 297 299
265 263 262 262 263 266 269 271 275 279 283 288 292 293 294 296 298 298 301 304 304 304 308 312 314 313 314 316 314 310 308 308 307 306 303 297 291 290 291 291 291 291 288 285 282 275 270 271 276 279 279 272 266 271 283 287 283 281 284 290 294 296 298
258 257 258 260 260 262 264 268 272 277 284 289 290 290 290 291 292 293 296 300 301 302 306 310 311 312 311 312 311 309 308 307 305 304 303 301 298 296 296 295 292 290 285 281 281 277 272 272 277 278 275 269 264 272 283 284 281 280 284 289 293 294 297
252 252 254 254 254 257 262 267 271 277 283 286 286 285 286 287 289 292 296 299 299 300 304 308 309 309 308 307 308 308 307 305 303 304 304 304 304 304 301 295 292 290 284 279 281 282 277 276 282 278 271 265 265 275 282 280 279 281 285 290 292 294 299
243 244 247 249 253 259 262 264 268 273 278 280 280 281 283 287 292 295 297 298 297 299 304 306 306 307 306 305 306 305 303 301 301 302 302 302 304 305 301 297 295 291 283 279 285 292 287 288 290 281 270 263 268 279 282 278 280 285 289 293 294 296 302
240 243 248 252 257 260 260 262 266 269 273 275 276 277 281 287 292 295 297 297 296 298 302 304 304 305 304 303 303 300 298 297 297 298 300 301 303 304 300 297 294 286 279 281 293 300 298 298 293 283 271 265 274 284 284 279 281 287 292 295 298 300 303
243 247 251 255 258 260 260 262 265 268 271 274 275 275 279 284 288 292 296 296 296 297 300 302 304 305 304 302 301 298 295 295 295 298 300 300 303 303 296 290 286 282 283 294 299 300 303 301 292 280 270 269 280 288 286 282 283 287 292 298 302 303 305
248 249 252 255 257 259 260 263 267 269 272 276 276 275 277 280 285 290 292 293 294 295 296 300 303 304 303 301 300 298 296 296 296 299 300 302 305 300 290 287 290 291 295 299 299 302 307 303 291 278 272 276 285 289 288 286 283 287 297 303 305 305 305
247 249 252 256 258 260 262 267 272 274 274 276 277 275 277 281 286 290 289 287 291 294 296 298 301 300 298 298 299 298 296 294 295 297 299 300 301 295 289 291 296 297 296 296 298 304 305 296 284 277 277 280 282 283 288 291 288 295 305 307 306 306 305
249 251 254 256 259 261 263 266 270 271 272 276 279 279 283 286 289 290 287 284 288 293 295 297 297 295 294 295 298 298 295 293 293 295 295 293 290 288 288 290 293 294 294 295 297 301 299 290 281 277 279 280 275 272 280 288 292 302 310 309 307 306 305
252 253 254 257 260 261 260 263 268 272 275 280 284 284 286 287 288 288 286 285 288 291 293 295 294 292 291 293 295 295 293 292 293 294 293 290 287 286 285 286 289 291 292 295 297 295 291 287 283 278 277 276 271 270 278 283 289 302 311 311 307 305 305
255 257 258 261 261 261 261 266 274 279 282 285 287 287 286 286 286 286 285 286 287 289 291 292 290 287 288 290 292 291 289 289 291 293 293 291 290 290 288 287 289 290 292 296 293 285 283 285 282 276 273 272 273 278 281 280 286 299 308 309 306 306 310
252 255 259 263 263 264 268 273 280 284 286 287 288 288 287 286 285 284 284 285 286 288 290 289 286 285 287 288 288 287 286 287 290 292 294 294 294 295 294 293 294 296 298 297 289 282 283 282 276 272 276 281 283 282 279 279 286 298 306 308 306 309 314
254 257 261 265 268 271 275 279 282 284 285 286 286 286 285 284 283 282 282 282 283 286 287 285 284 285 286 285 284 284 284 286 289 292 295 297 297 296 297 300 302 304 306 304 295 284 277 272 270 276 288 293 292 287 285 286 291 298 303 304 305 309 312
263 265 266 267 268 270 274 278 282 284 285 284 284 284 284 284 283 281 280 279 282 285 284 282 283 284 283 281 282 283 285 287 289 292 296 299 298 298 301 305 304 305 311 312 299 281 264 264 280 293 297 297 296 293 292 293 295 298 299 300 303 308 310
261 261 262 264 266 269 272 276 280 284 285 285 284 284 284 284 282 280 278 280 284 284 282 280 281 281 280 280 282 285 287 290 292 295 297 299 298 298 301 304 303 303 307 305 291 278 271 281 292 296 297 298 297 296 296 297 298 298 297 299 304 308 309
259 259 261 263 266 270 273 276 279 283 285 286 286 285 284 283 281 279 278 282 285 283 280 280 281 281 282 284 287 289 291 293 295 297 297 297 296 297 298 300 301 301 298 290 283 281 283 288 292 294 295 297 298 298 299 299 299 298 298 301 305 307 305
262 263 264 264 265 269 272 276 279 284 287 289 288 285 284 283 281 280 282 283 283 282 282 284 285 286 287 289 290 292 292 292 293 294 293 292 292 293 294 295 295 296 294 291 288 287 287 289 292 295 299 301 301 300 299 299 298 298 299 302 304 302 300
265 266 266 266 267 270 273 276 280 284 287 288 286 282 280 280 280 280 281 281 281 282 284 287 288 288 288 288 288 288 289 289 289 290 290 291 292 292 292 292 292 292 292 292 291 291 291 294 298 301 304 304 301 300 299 298 298 298 299 301 300 297 298
265 266 266 267 269 271 273 276 279 281 282 282 280 278 277 278 278 278 278 279 280 283 285 287 286 283 282 282 284 286 287 288 288 289 290 292 292 293 293 293 293 294 294 295 296 298 300 303 304 305 304 303 301 301 300 300 298 298 299 300 298 297 298
Height
5898 5899 5898 5898 5897 5897 5895 5895 5894 5894 5894 5895 5895 5895 5896 5896 5897 5897 5898 5898 5899 5899 5900 5900 5899 5899 5899 5899 5899 5898 5898 5897 5896 5895 5894 5893 5892 5891 5890 5889 5888 5888 5887 5886 5886 5885 5884 5883 5882 5881 5881 5880 5879 5879 5878 5878 5877 5876 5875 5874 5874 5873 5872
5897 5897 5897 5897 5896 5895 5894 5893 5893 5892 5893 5893 5893 5893 5894 5894 5895 5895 5896 5896 5897 5898 5898 5898 5898 5898 5898 5897 5897 5896 5896 5895 5894 5893 5892 5892 5891 5889 5888 5887 5886 5886 5885 5884 5883 5883 5881 5880 5879 5879 5878 5878 5877 5876 5876 5875 5874 5873 5872 5871 5871 5870 5869
5895 5895 5895 5895 5894 5893 5892 5891 5891 5891 5891 5891 5891 5891 5892 5892 5892 5893 5894 5894 5895 5896 5896 5896 5896 5895 5895 5895 5894 5894 5893 5892 5892 5891 5890 5889 5888 5887 5886 5885 5884 5883 5883 5882 5881 5880 5879 5878 5877 5876 5876 5875 5874 5873 5873 5872 5871 5870 5869 5868 5867 5866 5865
5893 5893 5893 5893 5892 5891 5890 5890 5889 5889 5889 5889 5889 5889 5889 5890 5890 5891 5892 5892 5893 5893 5893 5893 5893 5893 5893 5892 5891 5890 5890 5889 5888 5888 5887 5886 5885 5884 5883 5882 5882 5881 5880 5879 5878 5877 5877 5876 5875 5874 5873 5873 5871 5870 5870 5869 5868 5867 5866 5865 5863 5862 5862
5891 5891 5891 5891 5890 5889 5888 5888 5887 5886 5886 5886 5886 5887 5887 5887 5888 5889 5890 5890 5890 5891 5891 5891 5891 5891 5890 5889 5888 5888 5887 5886 5885 5884 5884 5883 5882 5881 5880 5879 5878 5878 5877 5876 5875 5875 5874 5873 5873 5872 5871 5870 5868 5867 5866 5866 5865 5864 5863 5861 5860 5859 5858
5890 5890 5890 5889 5888 5887 5887 5886 5885 5884 5883 5883 5884 5884 5884 5885 5886 5887 5887 5888 5888 5888 5889 5889 5889 5888 5887 5886 5886 5885 5884 5883 5882 5881 5880 5879 5878 5877 5876 5876 5874 5874 5874 5873 5873 5872 5872 5871 5870 5869 5868 5867 5865 5864 5863 5862 5861 5861 5860 5858 5857 5856 5855
5888 5888 5888 5887 5887 5886 5885 5885 5884 5883 5882 5881 5882 5882 5883 5884 5884 5885 5885 5886 5886 5886 5887 5887 5886 5886 5885 5884 5883 5882 5881 5880 5879 5878 5877 5876 5874 5873 5872 5872 5871 5871 5870 5870 5870 5869 5869 5868 5867 5866 5864 5863 5862 5860 5859 5858 5858 5857 5856 5855 5854 5853 5851
5886 5886 5886 5885 5886 5885 5884 5883 5883 5882 5881 5880 5880 5881 5882 5882 5883 5883 5884 5884 5885 5885 5885 5885 5884 5884 5883 5882 5881 5880 5878 5877 5876 5875 5874 5873 5871 5870 5869 5869 5868 5868 5867 5867 5866 5865 5864 5864 5863 5862 5860 5859 5858 5857 5856 5855 5854 5853 5852 5851 5850 5849 5847
5883 5883 5883 5883 5884 5883 5882 5882 5881 5881 5880 5880 5880 5880 5881 5881 5882 5882 5882 5883 5883 5883 5883 5883 5882 5882 5881 5879 5878 5877 5875 5873 5873 5872 5871 5870 5869 5867 5866 5866 5865 5864 5864 5862 5861 5860 5860 5859 5858 5857 5857 5856 5855 5854 5853 5852 5850 5849 5848 5847 5846 5844 5843
5881 5881 5881 5881 5882 5881 5881 5880 5879 5879 5879 5879 5879 5879 5879 5880 5880 5880 5881 5881 5882 5882 5881 5880 5880 5879 5878 5876 5875 5873 5871 5870 5869 5868 5867 5866 5865 5864 5863 5862 5861 5861 5859 5858 5857 5856 5856 5856 5855 5853 5852 5852 5851 5850 5849 5847 5846 5845 5844 5842 5841 5840 5838
5878 5879 5879 5879 5880 5879 5879 5879 5878 5877 5877 5877 5878 5878 5878 5878 5879 5879 5880 5880 5880 5879 5878 5878 5877 5876 5875 5873 5871 5869 5868 5865 5864 5863 5862 5862 5860 5860 5859 5858 5857 5856 5855 5853 5853 5853 5853 5852 5851 5850 5848 5847 5846 5845 5844 5842 5841 5840 5839 5838 5836 5835 5833
5875 5876 5876 5877 5877 5877 5877 5877 5876 5876 5876 5876 5876 5876 5876 5877 5877 5878 5878 5878 5877 5877 5876 5875 5874 5872 5871 5870 5868 5866 5863 5861 5859 5857 5857 5856 5855 5854 5854 5852 5851 5852 5851 5849 5848 5848 5848 5847 5846 5845 5844 5843 5841 5840 5839 5837 5836 5835 5834 5833 5832 5831 5829
5872 5873 5874 5874 5874 5875 5875 5875 5875 5874 5874 5874 5875 5875 5875 5875 5875 5875 5876 5875 5875 5874 5873 5871 5870 5869 5868 5866 5864 5862 5859 5857 5854 5851 5851 5852 5851 5850 5850 5849 5848 5848 5847 5844 5843 5843 5842 5841 5841 5840 5839 5838 5836 5835 5834 5833 5832 5831 5830 5829 5828 5826 5825
5869 5870 5870 5871 5872 5872 5872 5872 5872 5872 5873 5873 5873 5873 5873 5873 5873 5873 5873 5872 5871 5870 5869 5868 5867 5866 5864 5862 5860 5858 5856 5853 5848 5844 5845 5847 5847 5847 5846 5846 5845 5844 5842 5839 5838 5837 5836 5836 5835 5835 5834 5833 5832 5831 5829 5828 5828 5827 5826 5825 5823 5822 5821
5866 5867 5867 5868 5869 5869 5869 5869 5869 5870 5870 5870 5871 5871 5870 5870 5870 5870 5870 5869 5868 5867 5866 5864 5864 5863 5861 5859 5857 5854 5852 5847 5841 5839 5842 5843 5843 5843 5841 5840 5840 5838 5835 5833 5832 5831 5831 5830 5830 5829 5829 5828 5827 5826 5825 5824 5824 5823 5822 5820 5819 5818 5816
5863 5864 5864 5865 5865 5866 5866 5866 5866 5866 5866 5866 5867 5867 5867 5867 5867 5866 5866 5865 5864 5863 5862 5861 5860 5859 5857 5855 5853 5850 5847 5841 5838 5840 5841 5837 5836 5837 5834 5832 5833 5831 5829 5828 5827 5827 5826 5825 5824 5824 5824 5823 5823 5822 5821 5820 5819 5819 5817 5816 5815 5813 5812
5860 5861 5861 5862 5862 5862 5862 5862 5862 5862 5862 5862 5861 5861 5862 5862 5862 5861 5861 5860 5859 5858 5858 5857 5856 5854 5853 5851 5849 5846 5843 5839 5837 5839 5837 5831 5829 5830 5828 5828 5828 5826 5823 5822 5821 5821 5820 5820 5819 5819 5819 5819 5818 5817 5817 5816 5815 5814 5813 5812 5810 5809 5807
5857 5858 5859 5859 5858 5858 5858 5858 5858 5858 5858 5857 5857 5857 5857 5857 5857 5857 5856 5856 5855 5854 5853 5852 5851 5849 5848 5847 5845 5842 5839 5836 5833 5832 5830 5826 5825 5824 5824 5824 5823 5821 5819 5816 5814 5814 5814 5814 5814 5814 5814 5814 5813 5813 5812 5811 5810 5809 5809 5807 5806 5804 5803
5854 5855 5855 5855 5855 5855 5854 5854 5854 5854 5854 5853 5853 5853 5853 5853 5853 5852 5852 5851 5851 5850 5849 5848 5847 5845 5843 5842 5840 5838 5835 5832 5829 5826 5822 5819 5820 5821 5820 5820 5817 5816 5815 5812 5810 5808 5807 5808 5809 5808 5808 5808 5808 5808 5808 5806 5805 5804 5804 5803 5801 5800 5798
5850 5851 5851 5851 5851 5851 5851 5850 5850 5849 5850 5850 5850 5849 5849 5849 5848 5848 5848 5847 5847 5846 5845 5843 5842 5841 5839 5837 5835 5833 5830 5828 5825 5821 5816 5815 5818 5818 5817 5817 5814 5811 5809 5806 5803 5801 5801 5802 5804 5803 5803 5802 5802 5803 5802 5801 5799 5799 5798 5798 5797 5795 5794
5846 5846 5846 5847 5847 5846 5846 5846 5845 5845 5846 5846 5846 5845 5845 5845 5844 5844 5844 5843 5842 5842 5840 5839 5838 5836 5835 5833 5831 5828 5826 5823 5820 5816 5813 5814 5815 5814 5812 5811 5808 5806 5804 5799 5796 5796 5797 5798 5799 5798 5798 5797 5797 5798 5797 5795 5794 5793 5793 5793 5792 5790 5789
5842 5842 5842 5842 5842 5841 5841 5841 5841 5841 5842 5842 5841 5841 5841 5840 5840 5839 5839 5839 5838 5837 5836 5835 5834 5832 5830 5828 5827 5824 5822 5819 5816 5813 5809 5808 5809 5809 5807 5804 5801 5798 5795 5792 5791 5792 5793 5794 5794 5794 5793 5793 5793 5793 5792 5790 5789 5788 5789 5788 5786 5785 5784
5836 5836 5836 5836 5836 5836 5837 5837 5837 5837 5837 5837 5837 5836 5836 5836 5835 5835 5835 5834 5833 5833 5832 5831 5829 5827 5825 5823 5822 5819 5817 5814 5812 5810 5806 5802 5802 5803 5801 5797 5794 5790 5787 5786 5788 5788 5788 5789 5790 5788 5787 5788 5789 5788 5787 5785 5784 5784 5784 5783 5782 5781 5780
5830 5830 5831 5831 5832 5832 5832 5832 5833 5833 5833 5833 5832 5832 5832 5832 5832 5831 5830 5830 5829 5829 5828 5827 5825 5823 5821 5819 5817 5814 5812 5809 5807 5806 5803 5799 5797 5795 5793 5790 5787 5784 5783 5785 5785 5785 5785 5785 5785 5783 5783 5784 5784 5783 5781 5780 5779 5779 5779 5779 5778 5777 5775
5824 5825 5827 5827 5827 5827 5827 5828 5828 5828 5829 5829 5829 5828 5828 5828 5828 5827 5826 5825 5825 5824 5823 5822 5820 5818 5815 5813 5811 5808 5806 5804 5802 5800 5798 5796 5793 5789 5785 5783 5783 5782 5782 5783 5782 5781 5780 5780 5779 5780 5780 5780 5779 5777 5776 5775 5774 5775 5775 5774 5773 5771 5769
5820 5821 5822 5822 5822 5822 5822 5822 5823 5824 5824 5825 5824 5824 5823 5823 5823 5823 5822 5821 5820 5819 5818 5817 5816 5813 5810 5807 5805 5802 5799 5797 5796 5795 5794 5792 5789 5783 5778 5778 5781 5781 5780 5779 5778 5776 5774 5774 5775 5776 5775 5775 5775 5773 5771 5770 5770 5770 5770 5769 5767 5765 5763
5816 5816 5816 5817 5817 5818 5818 5818 5819 5819 5820 5820 5819 5819 5818 5818 5819 5818 5817 5816 5815 5814 5813 5813 5811 5809 5806 5803 5800 5796 5793 5791 5790 5791 5790 5788 5787 5784 5779 5779 5779 5777 5776 5775 5773 5771 5770 5770 5771 5771 5770 5771 5771 5769 5767 5766 5766 5765 5764 5762 5760 5759 5757
5811 5811 5811 5812 5813 5813 5814 5814 5815 5815 5815 5814 5814 5813 5813 5813 5813 5813 5812 5811 5810 5808 5808 5807 5805 5803 5801 5798 5795 5791 5788 5785 5785 5786 5787 5786 5785 5784 5781 5779 5776 5773 5771 5770 5768 5768 5767 5766 5766 5765 5764 5765 5765 5764 5764 5763 5761 5759 5757 5756 5754 5753 5751
5806 5807 5807 5808 5808 5808 5809 5809 5809 5809 5809 5809 5808 5808 5807 5807 5807 5807 5806 5805 5803 5802 5801 5801 5799 5797 5795 5793 5790 5786 5783 5780 5780 5782 5783 5782 5781 5780 5777 5775 5772 5769 5767 5766 5765 5763 5762 5761 5761 5760 5759 5759 5759 5759 5759 5758 5756 5753 5751 5750 5749 5747 5745
5801 5802 5802 5803 5804 5804 5804 5805 5805 5805 5804 5803 5802 5801 5801 5801 5801 5800 5799 5798 5796 5796 5795 5794 5792 5791 5789 5787 5785 5782 5779 5777 5776 5777 5777 5776 5775 5774 5772 5770 5768 5765 5764 5764 5763 5760 5758 5757 5757 5755 5755 5756 5756 5755 5753 5752 5750 5748 5746 5745 5743 5741 5739
5794 5795 5797 5799 5799 5799 5800 5800 5800 5799 5798 5797 5796 5796 5795 5795 5795 5794 5793 5791 5790 5790 5789 5788 5786 5785 5784 5782 5780 5777 5775 5773 5771 5771 5772 5771 5770 5769 5767 5765 5763 5762 5760 5759 5759 5757 5755 5754 5753 5753 5754 5755 5754 5751 5749 5747 5745 5743 5741 5739 5737 5734 5732
5788 5789 5791 5793 5794 5793 5794 5794 5793 5793 5793 5792 5791 5790 5789 5789 5788 5788 5787 5785 5784 5783 5782 5781 5780 5779 5778 5776 5774 5772 5770 5769 5768 5766 5766 5765 5764 5763 5762 5760 5758 5756 5754 5752 5751 5750 5750 5749 5750 5751 5751 5751 5749 5747 5745 5742 5740 5738 5735 5733 5730 5728 5726
5783 5784 5786 5787 5787 5787 5787 5787 5787 5787 5787 5787 5785 5783 5783 5782 5782 5781 5780 5779 5778 5776 5775 5775 5774 5773 5772 5771 5769 5767 5765 5764 5764 5763 5761 5760 5758 5757 5756 5754 5753 5750 5748 5748 5747 5747 5746 5746 5746 5745 5745 5744 5742 5740 5738 5736 5734 5732 5729 5727 5725 5723 5721
5779 5780 5780 5780 5780 5780 5781 5782 5781 5781 5781 5779 5777 5776 5775 5775 5775 5775 5774 5772 5770 5769 5769 5769 5768 5768 5767 5766 5764 5762 5761 5759 5759 5759 5757 5755 5754 5752 5750 5749 5748 5746 5745 5746 5746 5745 5744 5742 5740 5739 5738 5736 5735 5733 5731 5729 5727 5726 5723 5721 5719 5717 5714
5775 5776 5776 5776 5775 5775 5776 5776 5776 5775 5774 5773 5771 5769 5769 5768 5768 5768 5768 5766 5765 5765 5765 5764 5763 5763 5762 5761 5760 5759 5757 5756 5755 5754 5753 5752 5750 5749 5747 5745 5744 5743 5743 5743 5742 5740 5739 5737 5735 5733 5731 5729 5727 5726 5724 5723 5721 5719 5717 5715 5713 5711 5709
5771 5771 5771 5771 5770 5770 5771 5771 5770 5769 5768 5767 5765 5764 5764 5763 5762 5762 5762 5762 5762 5762 5760 5759 5759 5758 5758 5757 5756 5755 5754 5753 5752 5750 5749 5748 5746 5745 5743 5741 5740 5739 5737 5736 5735 5734 5732 5731 5729 5727 5725 5723 5721 5720 5719 5717 5715 5713 5711 5709 5707 5705 5703
5765 5765 5765 5765 5765 5765 5764 5764 5764 5763 5763 5762 5761 5759 5759 5758 5757 5757 5758 5757 5757 5756 5756 5755 5754 5754 5753 5753 5752 5751 5750 5749 5748 5746 5744 5743 5741 5739 5737 5736 5734 5733 5731 5730 5729 5728 5727 5725 5722 5720 5718 5717 5715 5714 5713 5711 5709 5707 5705 5703 5701 5700 5698
5758 5759 5759 5759 5759 5758 5758 5758 5758 5758 5757 5757 5755 5754 5754 5753 5752 5752 5752 5751 5751 5751 5750 5750 5749 5748 5747 5747 5746 5745 5744 5743 5741 5739 5737 5736 5734 5733 5731 5729 5728 5727 5726 5725 5723 5721 5719 5717 5715 5713 5712 5711 5709 5708 5706 5704 5702 5701 5699 5697 5695 5693 5691